TimePST,TemperatureF,Dew PointF,Humidity,Sea Level PressureIn,VisibilityMPH,Wind Direction,Wind SpeedMPH,Gust SpeedMPH,PrecipitationIn,Events,Conditions,WindDirDegrees,DateUTC
12:53 AM,60.1,33.1,36,29.99,10.0,North,3.5,-,N/A,,Clear,360,2014-02-14 08:53:00
1:53 AM,61.0,30.0,31,29.98,10.0,NW,4.6,-,N/A,,Clear,310,2014-02-14 09:53:00
2:53 AM,60.1,26.1,27,29.97,10.0,NNW,8.1,-,N/A,,Clear,330,2014-02-14 10:53:00
3:53 AM,57.9,30.9,36,29.97,10.0,NNW,4.6,-,N/A,,Clear,340,2014-02-14 11:53:00
4:53 AM,59.0,24.1,26,29.99,10.0,NNW,5.8,-,N/A,,Clear,330,2014-02-14 12:53:00
5:53 AM,59.0,26.1,28,29.99,10.0,NW,5.8,-,N/A,,Clear,320,2014-02-14 13:53:00
6:53 AM,55.9,32.0,40,30.01,10.0,West,3.5,-,N/A,,Clear,260,2014-02-14 14:53:00
7:53 AM,64.0,23.0,21,30.04,10.0,NW,4.6,-,N/A,,Clear,310,2014-02-14 15:53:00
8:53 AM,73.0,26.1,17,30.04,10.0,North,6.9,-,N/A,,Scattered Clouds,350,2014-02-14 16:53:00
9:53 AM,80.1,19.9,11,30.04,10.0,NNW,5.8,-,N/A,,Partly Cloudy,330,2014-02-14 17:53:00
10:53 AM,82.9,19.9,10,30.03,10.0,Calm,Calm,-,N/A,,Clear,0,2014-02-14 18:53:00
11:53 AM,84.9,21.0,10,30.01,10.0,Calm,Calm,-,N/A,,Clear,0,2014-02-14 19:53:00
12:53 PM,88.0,19.0,8,29.98,10.0,SSW,3.5,-,N/A,,Scattered Clouds,200,2014-02-14 20:53:00
1:53 PM,88.0,15.1,7,29.96,10.0,SE,6.9,-,N/A,,Scattered Clouds,130,2014-02-14 21:53:00
2:53 PM,89.1,12.0,6,29.95,10.0,ESE,4.6,-,N/A,,Clear,120,2014-02-14 22:53:00
3:53 PM,89.1,19.0,8,29.94,10.0,ESE,8.1,-,N/A,,Clear,110,2014-02-14 23:53:00
4:53 PM,86.0,28.0,12,29.94,10.0,East,8.1,-,N/A,,Clear,100,2014-02-15 00:53:00
5:53 PM,81.0,28.0,14,29.95,10.0,SE,5.8,-,N/A,,Clear,130,2014-02-15 01:53:00
6:53 PM,77.0,27.0,16,29.97,10.0,Calm,Calm,-,N/A,,Clear,0,2014-02-15 02:53:00
7:53 PM,71.1,30.9,23,29.98,8.0,Calm,Calm,-,N/A,,Clear,0,2014-02-15 03:53:00
8:53 PM,69.1,23.0,18,29.99,10.0,NNW,4.6,-,N/A,,Clear,340,2014-02-15 04:53:00
9:53 PM,66.9,23.0,19,30.00,10.0,NW,6.9,-,N/A,,Clear,320,2014-02-15 05:53:00
10:53 PM,66.9,21.0,17,29.99,10.0,NW,4.6,-,N/A,,Clear,320,2014-02-15 06:53:00
11:53 PM,63.0,21.9,21,29.99,10.0,North,5.8,-,N/A,,Clear,350,2014-02-15 07:53:00